#timestamp,LO_Frequency,Hit 
1500768015.4,286045495.5,N
1500768035.2,286045495.1,N
1500768055.1,286045493.2,N
1500768056.0,286045493.2,N
1500768075.8,286045492.8,N
1500768095.6,286045493.6,N
1500768115.5,286045492.7,N
1500768135.3,286045493.2,N
1500768155.2,286045492.9,N
1500768175.9,286045495.6,N
1500768195.7,286045493.3,N
1500768215.6,286045493.7,N
1500768235.4,286045492.9,N
1500768255.2,286045493.4,N
1500768275.1,286045493.6,N
1500768276.0,286045493.6,N
1500768295.8,286045490.9,N
1500768315.7,286045493.4,N
1500768335.5,286045493.7,N
1500768355.3,286045491.7,N
1500768375.2,286045493.3,N
1500768395.0,286045491.5,N
1500768395.9,286045491.5,N
1500768415.8,286045491.0,N
1500768435.6,286045494.0,N
1500768455.4,286045491.3,N
1500768475.3,286045492.0,N
1500768495.1,286045492.0,N
1500768515.8,286045491.5,N
1500768535.7,286045491.4,N
1500768555.5,286045493.6,N
1500768575.4,286045493.6,N
1500768595.2,286045490.9,N
1500768615.0,286045493.8,N
1500768615.9,286045493.8,N
1500768635.8,286045494.0,N
1500768655.6,286045493.2,N
1500768675.5,286045491.9,N
1500768695.3,286045492.0,N
1500768715.1,286045491.9,N
1500768735.9,286045491.3,N
1500768755.7,286045493.5,N
1500768775.6,286045494.0,N
1500768795.4,286045493.1,N
1500768815.2,286045491.2,N
1500768835.1,286045495.6,N
1500768836.0,286045495.6,N
1500768855.8,286045491.5,N
1500768875.7,286045490.9,N
1500768895.5,286045491.8,N
1500768915.3,286045491.3,N
1500768935.2,286045490.9,N
1500768955.0,286045490.0,N
1500768955.9,286045490.0,N
1500768975.7,286045491.9,N
1500768995.6,286045491.4,N
1500769015.4,286045493.9,N
1500769035.3,286045489.8,N
1500769055.1,286045491.6,N
1500769056.0,286045491.6,N
1500769075.8,286045490.9,N
1500769095.7,286045491.2,N
1500769115.5,286045489.4,N
1500769135.4,286045492.2,N
1500769155.2,286045493.4,N
1500769175.0,286045494.0,N
1500769175.9,286045494.0,N
1500769195.8,286045491.2,N
1500769215.6,286045491.8,N
1500769235.4,286045490.9,N
1500769255.3,286045491.3,N
1500769275.1,286045491.0,N
1500769295.9,286045493.4,N
1500769315.7,286045494.0,N
1500769335.5,286045493.9,N
1500769355.4,286045493.9,N
1500769375.2,286045491.4,N
1500769395.0,286045491.3,N
1500769395.9,286045491.3,N
1500769415.8,286045493.2,N
1500769435.6,286045493.8,N
1500769455.5,286045491.0,N
1500769475.3,286045495.4,N
1500769495.1,286045490.9,N
1500769515.9,286045495.6,N
1500769535.7,286045493.2,N
1500769555.6,286045493.8,N
1500769575.4,286045493.8,N
1500769595.2,286045495.5,N
1500769615.1,286045495.6,N
1500769616.0,286045495.6,N
1500769635.8,286045495.3,N
1500769655.6,286045493.0,N
1500769675.5,286045493.4,N
1500769695.3,286045496.8,N
1500769715.2,286045495.4,N
1500769735.9,286045493.0,N
1500769755.7,286045493.1,N
1500769775.6,286045495.5,N
1500769795.4,286045494.5,N
1500769815.2,286045494.3,N
1500769835.1,286045493.8,N
1500769836.0,286045493.8,N
1500769855.8,286045492.6,N
1500769875.7,286045492.7,N
1500769895.5,286045495.1,N
1500769915.3,286045493.1,N
1500769935.2,286045493.7,N
1500769955.0,286045494.7,N
1500769955.9,286045494.7,N
1500769975.8,286045494.1,N
1500769995.6,286045495.1,N
1500770015.4,286045495.0,N
1500770035.3,286045492.6,N
1500770055.1,286045495.2,N
1500770075.8,286045493.1,N
1500770095.7,286045492.7,N
1500770115.5,286045492.6,N
1500770135.4,286045495.4,N
1500770155.2,286045494.3,N
1500770175.0,286045494.2,N
1500770175.9,286045494.2,N
1500770195.8,286045495.0,N
1500770215.6,286045493.0,N
1500770235.5,286045497.2,N
1500770255.3,286045496.7,N
1500770275.1,286045492.9,N
1500770295.9,286045492.9,N
1500770315.7,286045494.6,N
1500770335.6,286045496.4,N
1500770355.4,286045496.7,N
1500770375.2,286045497.1,N
1500770395.1,286045494.2,N
1500770396.0,286045494.2,N
1500770415.8,286045495.9,N
1500770435.6,286045494.1,N
1500770455.5,286045492.8,N
1500770475.3,286045492.6,N
1500770495.2,286045495.6,N
1500770515.9,286045494.8,N
1500770535.7,286045494.5,N
1500770555.6,286045494.2,N
1500770575.4,286045494.5,N
1500770595.3,286045496.9,N
1500770615.1,286045494.5,N
1500770616.0,286045494.5,N
1500770635.8,286045496.3,N
1500770655.7,286045496.9,N
1500770675.5,286045494.9,N
1500770695.3,286045494.8,N
1500770715.2,286045495.4,N
1500770735.0,286045492.7,N
1500770735.9,286045492.7,N
1500770755.8,286045492.5,N
1500770775.6,286045495.2,N
1500770795.4,286045495.3,N
1500770815.3,286045495.5,N
1500770835.1,286045493.3,N
1500770855.9,286045494.8,N
1500770875.7,286045494.7,N
1500770895.5,286045496.8,N
1500770915.4,286045494.1,N
1500770935.2,286045494.6,N
1500770955.0,286045494.7,N
1500770956.0,286045494.7,N
1500770975.8,286045496.7,N
1500770995.6,286045495.8,N
1500771015.5,286045495.8,N
1500771035.3,286045494.9,N
1500771055.1,286045494.1,N
1500771075.9,286045496.5,N
1500771095.7,286045496.9,N
1500771115.6,286045496.8,N
1500771135.4,286045496.7,N
1500771155.2,286045497.1,N
1500771175.1,286045496.9,N
1500771176.0,286045496.9,N
1500771195.8,286045494.2,N
1500771215.7,286045496.6,N
1500771235.5,286045498.4,N
1500771255.3,286045498.3,N
1500771275.2,286045498.4,N
1500771295.0,286045498.7,N
1500771295.9,286045498.7,N
1500771315.8,286045498.6,N
1500771335.6,286045500.0,N
1500771355.4,286045499.5,N
1500771375.3,286045497.8,N
1500771395.1,286045496.5,N
1500771415.8,286045498.3,N
1500771435.7,286045497.8,N
1500771455.5,286045496.4,N
1500771475.4,286045495.9,N
1500771495.2,286045496.6,N
1500771515.0,286045497.8,N
1500771515.9,286045497.8,N
1500771535.8,286045499.1,N
1500771555.6,286045498.0,N
1500771575.4,286045498.2,N
1500771595.3,286045498.7,N
